星链-34202 (STARLINK-34202)

导读

STARLINK-34202是美国于2025年5月28日发射的星链卫星,归属SpaceX星链星座网络,星链计划旨在搭建全球卫星互联网,为全球偏远地区、海上以及空中等场景提供宽带网络服务,这类低轨卫星通过组网形式实现信号覆盖,该卫星入轨后参与星链星座运营,补充完善星座服务能力。

基本信息
目录编号:
64174
目录名称:
STARLINK-34202
国际标识:
2025-113E
轨道中心:
EARTH
卫星名称:
星链-34202
卫星全名:
星链-34202 (STARLINK-34202)
卫星状态:
在轨 (已飞行464 天)
发射日期:
2025-05-28 UTC
国别 :
美国 (US)
星等 :
--
轨道信息
数据来源 国际轨道数据 AOE轨道数据
星历时间 2026-09-02T22:00:02+0800
1天前
查看轨道信息
2026-09-03T09:00:00+0800
1天前
查看轨道信息
半长轴 6843.346km 6843.359km
偏心率 0.0001275 0.0001671
轨道倾角 53.160° 53.160°
近地点辐角 84.127° 68.392°
升交点赤经 349.367° 347.228°
平近点角 142.966° 170.327°
近地点 464.336km 464.078km
远地点 466.082km 466.366km
周期 93.899分钟 93.900分钟
每日圈数 15.335574 15.335532
详细信息
固有亮度:
5
最大亮度:
2.5
卫星平台:
Starlink V1.0
覆盖范围:
全球
运营商:
太空探索技术公司
运营商所在国:
美国
制造商(研发单位):
太空探索技术公司
制造商所在国:
美国
使用方式:
暂无
卫星简介
Starlink 计划是 SpaceX 推出的全球卫星互联网项目,通过发射低轨道卫星,为全球尤其是偏远地区提供高速、低延迟的互联网服务。自 2019 年起,Starlink 已部署数千颗卫星,旨在缩小全球数字鸿沟,推动互联网普及。该项目还为军事、航空等行业提供通信支持,带来广泛经济效益。
2D轨道图
3D轨道图
轨道高度分析图
轨道倾角分析图
轨道综合分析图
查看轨道综合分析图
交会数据列表
事件ID 空间交会对象 最接近时刻(TCA) 交会距离 交会风险概率(CRP) 交会风险指数(CRI) 操作
CDM_260902-100904-431106-417422
OBJECT B (44311)
2026-09-02T
10:09:19+0000
1.294 km
极远距离
4.7467E-6 低风险 0.49
CDM_260902-100603-679906-417421
TISAT 1 (36799)
2026-09-02T
10:06:04+0000
2.125 km
极远距离
2.423042E-6 低风险 0.43
CDM_260831-172206-417406-564421
2026-08-31T
17:22:07+0000
2.075 km
极远距离
2.244853E-6 低风险 0.42
CDM_260905-073806-121306-417421
2026-09-05T
07:38:43+0000
2.153 km
极远距离
2.007273E-6 低风险 0.41
CDM_260830-192706-036406-417421
2026-08-30T
19:27:12+0000
2.312 km
极远距离
1.759111E-6 低风险 0.4
CDM_260901-073006-417406-811321
2026-09-01T
07:30:15+0000
2.495 km
极远距离
1.732798E-6 低风险 0.4
CDM_260905-102806-417406-622821
2026-09-05T
10:28:01+0000
2.548 km
极远距离
1.450148E-6 低风险 0.38
CDM_260901-050606-014306-417421
2026-09-01T
05:06:06+0000
2.585 km
极远距离
1.410393E-6 低风险 0.38
CDM_260831-203205-173506-417421
2026-08-31T
20:32:50+0000
2.516 km
极远距离
1.407294E-6 低风险 0.38
CDM_260904-233806-417406-818221
2026-09-04T
23:38:19+0000
2.674 km
极远距离
1.400703E-6 低风险 0.38